Regional Weather Roundup
Issued by NWS

Home | Current Version | Previous Version | Graphics & Text | Print | Product List | Glossary On
Versions: 1 2 3 4 5 6 7 8 9 10 11 12 13 14 15 16 17 18 19 20 21 22 23 24 25 26 27 28 29 30 31 32 33 34 35 36 37 38 39 40 41 42 43 44 45 46 47 48 49 50
000
ASUS45 KBOI 280010
RWRID
WEATHER ROUNDUP FOR IDAHO
NATIONAL WEATHER SERVICE BOISE ID
500 PM MST SAT DEC 27 2014

NOTE: "FAIR" INDICATES FEW OR NO CLOUDS BELOW 12000 FEET
WITH NO SIGNIFICANT WEATHER AND/OR OBSTRUCTIONS TO VISIBILITY

IDZ012-014-280100-
SOUTHWEST IDAHO


CITY           SKY/WX    TMP DP  RH WIND       PRES   REMARKS
BOISE          CLOUDY    32  21  64 E8        30.22F WCI  25
CALDWELL       CLOUDY    34  21  60 SE7       30.26S WCI  28
MOUNTAIN HOME  CLOUDY    32  24  73 E10       30.23F WCI  24
$$

IDZ016-017-280100-
SOUTHCENTRAL IDAHO


CITY           SKY/WX    TMP DP  RH WIND       PRES   REMARKS
BURLEY         CLOUDY    29  17  61 S14       30.22F WCI  18
JEROME         CLOUDY    28  20  71 E7        30.23F WCI  21
TWIN FALLS     CLOUDY    30  16  56 S13       30.22F WCI  20
$$

IDZ019>023-280100-
SOUTHEAST IDAHO


CITY           SKY/WX    TMP DP  RH WIND       PRES   REMARKS
IDAHO FALLS    LGT SNOW  18  15  88 N3        30.21F FOG
POCATELLO      CLOUDY    27  18  69 S13       30.23F WCI  16
REXBURG        CLOUDY    17  14  88 CALM      30.20F
$$

IDZ006-010-011-018-031-032-280100-
CENTRAL IDAHO MOUNTAINS


CITY           SKY/WX    TMP DP  RH WIND       PRES   REMARKS
MCCALL         SNOW      19  16  88 CALM      30.10F VSB 1/2
HAILEY         CLOUDY    18   9  68 CALM      30.18S
STANLEY          N/A     10   2  69 CALM      30.09F
SALMON         PTCLDY    21  12  68 CALM      30.15F
CHALLIS        CLOUDY    16   6  65 CALM      30.13F
$$

IDZ002-004-006-007-026-280100-
NORTHERN IDAHO


CITY           SKY/WX    TMP DP  RH WIND       PRES   REMARKS
LEWISTON       CLOUDY    39  29  67 S18G29    29.99F WCI  30
LOWELL           N/A     33  31  92 CALM      30.11F
COEUR D`ALENE  CLOUDY    34  30  86 S10       29.92F WCI  26
MULLAN PASS    SNOW      22  18  85 VRB6      29.81F VSB 1/2 WCI  14
$$


USA.gov is the U.S. government's official web portal to all federal, state and local government web resources and services.